Regional Weather Roundup
Issued by NWS

Home | Current Version | Previous Version | Text Only | Print | Product List | Glossary On
Versions: 1 2 3 4 5 6 7 8 9 10 11 12 13 14 15 16 17 18 19 20 21 22 23 24 25 26 27 28 29 30 31 32 33 34 35 36 37 38 39 40 41 42 43 44 45 46 47 48 49 50
000
ASUS45 KREV 201910
RWRNV
NEVADA REGIONAL WEATHER ROUNDUP
NATIONAL WEATHER SERVICE RENO NV
1100 AM PST FRI JAN 20 2017

NOTE: "FAIR" INDICATES FEW OR NO CLOUDS BELOW 12,000 FEET WITH NO
SIGNIFICANT WEATHER AND/OR OBSTRUCTIONS TO VISIBILITY.

NVZ001-003-004-202000-
WESTERN NEVADA

CITY           SKY/WX    TMP DP  RH WIND       PRES   REMARKS
RENO           CLOUDY    37  31  78 S20       29.23F
CARSON CITY    PTSUNNY   32  30  93 E7        29.27F
MINDEN           N/A    N/A N/A N/A MISG        N/A
PYRAMID LAKE     N/A     37 N/A N/A SE8         N/A
FALLON         CLOUDY    42  29  59 S16G24    29.25F
LOVELOCK       CLOUDY    37  32  82 S15G22    29.28F
HAWTHORNE        N/A    N/A N/A N/A MISG        N/A
$$

NVZ002-CAZ072-073-202000-
NORTHERN AND CENTRAL SIERRA

CITY           SKY/WX    TMP DP  RH WIND       PRES   REMARKS
S. LAKE TAHOE  SNOW      30  27  88 SE7       29.24F VSB 1/2
TRUCKEE        LGT SNOW  30  27  86 SW10      29.24S
SQUAW VLY 8000   N/A     25  25 100 S13         N/A
SUSANVILLE     LGT SNOW  36  32  87 CALM      29.21S
MAMMOTH LAKES  LGT SNOW  29  22  74 S18       29.30F
BRIDGEPORT     SNOW      29  24  82 E9        29.21F VSB 1/2
$$

NVZ030-031-036-202000-
NORTHERN NEVADA

CITY           SKY/WX    TMP DP  RH WIND       PRES   REMARKS
ELKO           CLOUDY    32  22  66 CALM      29.38F
WINNEMUCCA     CLOUDY    34  30  85 S14       29.29F
WENDOVER       CLOUDY    25  23  93 CALM      29.53F
$$

NVZ035-037-202000-
CENTRAL NEVADA

CITY           SKY/WX    TMP DP  RH WIND       PRES   REMARKS
ELY            CLOUDY    29  25  85 S17       29.42F
EUREKA           N/A     32  23  69 S13G22    29.36F
$$

NVZ013-014-202000-
SOUTH CENTRAL NEVADA

CITY           SKY/WX    TMP DP  RH WIND       PRES   REMARKS
TONOPAH        FLURRIES  33  30  88 S14       29.38F
$$

NVZ017-020-022-202000-
SOUTHERN NEVADA

CITY           SKY/WX    TMP DP  RH WIND       PRES   REMARKS
LAS VEGAS      LGT RAIN  47  40  76 SE9       29.54F
N. LAS VEGAS   LGT RAIN  47  42  83 S14       29.55F
NELLIS AFB     LGT RAIN  48  41  76 SE20      29.55F
HENDERSON      LGT RAIN  45  40  82 S18G24    29.56F
MERCURY        CLOUDY    40  36  86 SE12      29.47F
$$



USA.gov is the U.S. government's official web portal to all federal, state and local government web resources and services.